Weather History for Akron, OH

Change the Weather History Date:

Saturday, March 9, 2013

  Actual Average (KCAK) Record (KCAK)
Temperature  
Mean Temperature 2 °C 2 °C  
Max Temperature 12 °C 7 °C 21 °C (2000)
Min Temperature -7 °C -3 °C -17 °C (1984)
Degree Days  
Heating Degree Days 28 30  
Month to date heating degree days 282  
Since 1 July heating degree days 4826  
Cooling Degree Days 0 0  
Month to date cooling degree days 0  
Year to date cooling degree days 0  
Moisture  
Dew Point -4 °C    
Average Humidity 64    
Maximum Humidity 93    
Minimum Humidity 38    
Precipitation  
Precipitation 0.00 mm 2.29 mm 8.15 mm (1964)
Month to date precipitation 0.78  
Year to date precipitation 5.70  
Snow  
Snow 0.00 cm 0.76 cm - ()
Month to date snowfall 3.0  
Since 1 July snowfall 39.5  
Snow Depth -    
Sea Level Pressure  
Sea Level Pressure 1026 hPa    
Wind  
Wind Speed 3 km/h (SSE)    
Max Wind Speed 11 km/h    
Max Gust Speed -    
Visibility 14 kilometers    
Events      
T = Trace of Precipitation, MM = Missing Value Source: NWS Daily Summary

Daily Weather History Graph

Daily Weather History Graph

Search for Another Location

Airport:

Trip Planner

Search our weather history database for the weather conditions in past years. The results will help you decide how hot, cold, wet, or windy it might be!

Date:

Astronomy

Mar. 09, 2013 Rise Set
Actual Time 6:46 AM EST 6:26 PM EST
Civil Twilight 6:19 AM EST 6:53 PM EST
Nautical Twilight 5:47 AM EST 7:25 PM EST
Astronomical Twilight 5:15 AM EST 7:57 PM EST
Moon 5:10 AM EST (3/9) 4:26 PM EST (3/9)
Length of Visible Light 12h 34m
Length of Day
11h 39m
Waning Crescent, 5% of the Moon is Illuminated
Mar 9
Waning Crescent
Mar 11
New
Mar 19
First Quarter
Mar 27
Full
Apr 3
Last Quarter

Hourly Weather History & Observations

Time (EST) Temp. Windchill Dew Point Humidity Pressure Visibility Wind Dir Wind Speed Gust Speed Precip Events Conditions
12:54 AM -4.4 °C - -6.1 °C 88% 1030.2 hPa 11.3 km Calm Calm - N/A   Clear
1:54 AM -5.0 °C - -6.1 °C 92% 1029.7 hPa 8.0 km Calm Calm - N/A   Clear
2:54 AM -5.0 °C - -7.2 °C 85% 1029.3 hPa 9.7 km Calm Calm - N/A   Clear
3:54 AM -6.0 °C - -7.0 °C 93% 1027.7 hPa 8.0 km Calm Calm - N/A   Clear
4:54 AM -5.6 °C - -6.7 °C 92% 1028.9 hPa 9.7 km Calm Calm - N/A   Clear
5:54 AM -5.6 °C - -7.2 °C 89% 1029.2 hPa 9.7 km Calm Calm - N/A   Clear
6:54 AM -6.7 °C - -8.3 °C 89% 1029.4 hPa 8.0 km Calm Calm - N/A   Clear
7:54 AM -3.9 °C - -5.0 °C 92% 1029.4 hPa 6.4 km Calm Calm - N/A   Clear
8:54 AM 0.6 °C - -2.2 °C 82% 1029.1 hPa 14.5 km Calm Calm - N/A   Clear
9:54 AM 2.2 °C -0.9 °C -2.8 °C 70% 1028.7 hPa 16.1 km ESE 11.1 km/h / 3.1 m/s - N/A   Clear
10:54 AM 4.4 °C 2.6 °C -2.2 °C 63% 1028.1 hPa 16.1 km Variable 7.4 km/h / 2.1 m/s - N/A   Clear
11:54 AM 5.6 °C 4.0 °C -2.2 °C 58% 1027.7 hPa 16.1 km ESE 7.4 km/h / 2.1 m/s - N/A   Clear
12:54 PM 7.8 °C 5.8 °C -1.7 °C 51% 1026.6 hPa 16.1 km SE 11.1 km/h / 3.1 m/s - N/A   Clear
1:54 PM 9.4 °C - -1.1 °C 48% 1025.3 hPa 16.1 km Variable 7.4 km/h / 2.1 m/s - N/A   Clear
2:54 PM 10.6 °C - -1.1 °C 44% 1024.3 hPa 16.1 km South 11.1 km/h / 3.1 m/s - N/A   Clear
3:54 PM 11.1 °C - -1.7 °C 41% 1023.5 hPa 16.1 km South 11.1 km/h / 3.1 m/s - N/A   Clear
4:54 PM 12.2 °C - -1.7 °C 38% 1022.7 hPa 16.1 km Variable 7.4 km/h / 2.1 m/s - N/A   Clear
5:54 PM 11.7 °C - -2.2 °C 38% 1021.8 hPa 14.5 km SE 7.4 km/h / 2.1 m/s - N/A   Clear
6:54 PM 8.9 °C - -1.7 °C 48% 1022.1 hPa 16.1 km Calm Calm - N/A   Clear
7:54 PM 8.3 °C - -2.8 °C 46% 1021.7 hPa 16.1 km Calm Calm - N/A   Clear
8:54 PM 8.3 °C - -2.8 °C 46% 1021.3 hPa 16.1 km Calm Calm - N/A   Clear
9:54 PM 8.3 °C - -2.8 °C 46% 1021.1 hPa 16.1 km Variable 5.6 km/h / 1.5 m/s - N/A   Clear
10:54 PM 8.3 °C - -2.8 °C 46% 1020.9 hPa 16.1 km South 5.6 km/h / 1.5 m/s - N/A   Mostly Cloudy
11:54 PM 8.3 °C - -2.8 °C 46% 1020.2 hPa 16.1 km South 7.4 km/h / 2.1 m/s - N/A   Overcast